STARLINK-11546, 62835

Orbit data source: Space-Track

STARLINK-11546, 62835 is a payload satellite owned by SpaceX/Seattle (US) in LEO that was launched on Mon, 27 Jan 2025 UTC via an FALCON 9 launch vehicle from the Air Force Eastern Test Range (AFETR). Payload-class satellites include a variety of spacecraft equipped with specific instruments for various scientific and technological missions. These include communications satellites like Starlink; space stations such as the ISS; scientific satellites like the Hubble; Earth observation satellites from companies like Planet Labs, Umbra, and HawkEye 360; GPS; miniature CubeSats for education and research; and military/defense satellites.

Loading next visibility...
Identifier
62835, 2025-019G
Orbit
LEO
Country
Flag of USUS
Related business
Manufacturer
SpaceX/Seattle
Mission
Operational Commercial Communications
Bus & Motor
STARLINK V2MD, Unknown motor
Mass
960 kg wet, ~910 kg dry
Launch date (UTC)
2025-01-27 (1 year ago)
Launch vehicle
FALCON 9
Launch site
Air Force Eastern Test Range (AFETR)
Object type
Payload
Rocket body
Debris
Shape & HBR
Box + 2 Pan, 18.1 m
Radar Cross Section
36.964 m², Large (>1 m²)

Expand to show TLE details & history
Last TLE update: 9 hours ago

TLE from 9 hours ago
0 STARLINK-11546
1 62835U 25019G   26127.87818029  .00259347  00000-0  19581-2 0  9998
2 62835  42.9990 309.7443 0001462 280.8885  79.1818 15.70890772 73180
Epoch: 2026-05-07T21:04Z
TLE epoch observation values (Epoch: 2026-05-07T21:04:34.777Z)
Latitude
-0.00001°
Longitude
127.88139°
Altitude
355.936 km
Speed
7.698 km/s
True Right ascension
20h 38m 58s
True Declination
0° 00' 00"
Sunlit
Object was in daylight at epoch
Visualization orbit readout
Latitude
Unknown
Longitude
Unknown
Altitude
Unknown
Speed
Unknown
Apparent Right ascension
Unknown
Apparent Declination
Unknown
Sunlit
N/A
Visualization observer readout
Local Sidereal Time
13:54:15
Azimuth
Unknown
Elevation
Unknown
Doppler factor
Unknown
Orbital elements
Apogee altitude
359.317 km
Perigee altitude
357.347 km
Semi-major axis
6,736.469 km
Eccentricity
0.00015
Inclination
42.999°
RAAN
309.7443°
Arg. of periapsis
280.8885°
True anomaly
79.19826°
Mean anomaly
79.1818°
Eccentric anomaly
79.19003°
Mean motion
3.9255 °/min
Orbital period
91.71 mins
BSTAR
0.0019581
Loading maneuver chart data...
Computing Atmospheric mass density...
Loading historical data...
Loading historical data...
Loading historical data...
Loading historical data...
Loading historical data...
Loading historical data...
Loading historical data...

Documentation

Showing up to 5 results
|